TimeCST,TemperatureF,Dew PointF,Humidity,Sea Level PressureIn,VisibilityMPH,Wind Direction,Wind SpeedMPH,Gust SpeedMPH,PrecipitationIn,Events,Conditions,WindDirDegrees,DateUTC
12:09 AM,23.0,21.2,93,29.98,10.0,Calm,Calm,-,N/A,,Clear,0,2012-11-21 06:09:00
12:29 AM,24.8,23.0,93,29.98,7.0,NE,3.5,-,N/A,,Clear,50,2012-11-21 06:29:00
12:50 AM,24.8,23.0,93,29.98,5.0,Calm,Calm,-,N/A,,Clear,0,2012-11-21 06:50:00
1:09 AM,23.0,23.0,100,29.97,7.0,NE,4.6,-,N/A,,Clear,40,2012-11-21 07:09:00
1:30 AM,26.6,23.0,86,29.97,5.0,NNE,4.6,-,N/A,,Clear,30,2012-11-21 07:30:00
1:50 AM,23.0,23.0,100,29.97,10.0,Calm,Calm,-,N/A,,Clear,0,2012-11-21 07:50:00
2:09 AM,23.0,23.0,100,29.96,5.0,Calm,Calm,-,N/A,,Clear,0,2012-11-21 08:09:00
2:29 AM,23.0,21.2,93,29.96,7.0,NNE,3.5,-,N/A,,Clear,20,2012-11-21 08:29:00
2:50 AM,23.0,21.2,93,29.95,5.0,Calm,Calm,-,N/A,,Clear,0,2012-11-21 08:50:00
3:09 AM,23.0,21.2,93,29.94,10.0,ENE,3.5,-,N/A,,Clear,60,2012-11-21 09:09:00
3:29 AM,23.0,21.2,93,29.93,10.0,Calm,Calm,-,N/A,,Clear,0,2012-11-21 09:29:00
3:50 AM,23.0,21.2,93,29.92,10.0,Calm,Calm,-,N/A,,Clear,0,2012-11-21 09:50:00
4:09 AM,23.0,21.2,93,29.93,7.0,Calm,Calm,-,N/A,,Clear,0,2012-11-21 10:09:00
4:30 AM,23.0,21.2,93,29.92,7.0,Calm,Calm,-,N/A,,Clear,0,2012-11-21 10:30:00
4:50 AM,23.0,21.2,93,29.93,10.0,Calm,Calm,-,N/A,,Clear,0,2012-11-21 10:50:00
5:09 AM,23.0,21.2,93,29.92,10.0,Calm,Calm,-,N/A,,Clear,0,2012-11-21 11:09:00
5:30 AM,23.0,21.2,93,29.91,7.0,Calm,Calm,-,N/A,,Clear,0,2012-11-21 11:30:00
5:50 AM,23.0,21.2,93,29.91,10.0,NNE,3.5,-,N/A,,Clear,20,2012-11-21 11:50:00
6:09 AM,23.0,21.2,93,29.91,7.0,Calm,Calm,-,N/A,,Clear,0,2012-11-21 12:09:00
6:30 AM,23.0,21.2,93,29.91,10.0,Calm,Calm,-,N/A,,Clear,0,2012-11-21 12:30:00
6:50 AM,24.8,23.0,93,29.91,10.0,Calm,Calm,-,N/A,,Clear,0,2012-11-21 12:50:00
7:09 AM,26.6,23.0,86,29.91,7.0,Calm,Calm,-,N/A,,Clear,0,2012-11-21 13:09:00
7:30 AM,26.6,23.0,86,29.91,7.0,Calm,Calm,-,N/A,,Clear,0,2012-11-21 13:30:00
7:49 AM,26.6,26.6,100,29.91,7.0,Calm,Calm,-,N/A,,Clear,0,2012-11-21 13:49:00
8:09 AM,28.4,26.6,93,29.91,5.0,Calm,Calm,-,N/A,,Clear,0,2012-11-21 14:09:00
8:30 AM,30.2,30.2,100,29.91,4.0,Calm,Calm,-,N/A,,Clear,0,2012-11-21 14:30:00
8:49 AM,32.0,32.0,100,29.91,4.0,Calm,Calm,-,N/A,,Clear,0,2012-11-21 14:49:00
9:09 AM,32.0,32.0,100,29.91,3.0,Calm,Calm,-,N/A,,Clear,0,2012-11-21 15:09:00
9:30 AM,32.0,32.0,100,29.91,4.0,Calm,Calm,-,N/A,,Clear,0,2012-11-21 15:30:00
9:49 AM,33.8,32.0,93,29.92,4.0,NE,3.5,-,N/A,,Clear,40,2012-11-21 15:49:00
10:09 AM,33.8,32.0,93,29.91,4.0,Calm,Calm,-,N/A,,Clear,0,2012-11-21 16:09:00
10:30 AM,35.6,33.8,93,29.91,5.0,Calm,Calm,-,N/A,,Clear,0,2012-11-21 16:30:00
10:49 AM,35.6,33.8,93,29.90,7.0,Calm,Calm,-,N/A,,Clear,0,2012-11-21 16:49:00
11:08 AM,37.4,32.0,81,29.90,10.0,Calm,Calm,-,N/A,,Clear,0,2012-11-21 17:08:00
11:29 AM,39.2,32.0,75,29.89,10.0,Calm,Calm,-,N/A,,Clear,0,2012-11-21 17:29:00
11:49 AM,39.2,32.0,75,29.88,10.0,Calm,Calm,-,N/A,,Clear,0,2012-11-21 17:49:00
12:10 PM,42.8,33.8,70,29.88,10.0,Calm,Calm,-,N/A,,Clear,0,2012-11-21 18:10:00
12:29 PM,42.8,32.0,66,29.87,10.0,Calm,Calm,-,N/A,,Clear,0,2012-11-21 18:29:00
12:49 PM,42.8,33.8,70,29.87,10.0,Calm,Calm,-,N/A,,Clear,0,2012-11-21 18:49:00
1:10 PM,42.8,32.0,66,29.86,10.0,South,4.6,-,N/A,,Clear,170,2012-11-21 19:10:00
1:29 PM,44.6,32.0,61,29.85,10.0,South,4.6,-,N/A,,Clear,170,2012-11-21 19:29:00
1:50 PM,46.4,32.0,57,29.84,10.0,SSE,4.6,-,N/A,,Clear,160,2012-11-21 19:50:00
2:10 PM,46.4,32.0,57,29.84,10.0,Calm,Calm,-,N/A,,Clear,0,2012-11-21 20:10:00
2:29 PM,50.0,33.8,54,29.84,10.0,SE,3.5,-,N/A,,Clear,130,2012-11-21 20:29:00
2:50 PM,46.4,32.0,57,29.84,10.0,South,3.5,-,N/A,,Clear,190,2012-11-21 20:50:00
3:10 PM,50.0,33.8,54,29.84,10.0,Calm,Calm,-,N/A,,Clear,0,2012-11-21 21:10:00
3:29 PM,50.0,33.8,54,29.83,10.0,Calm,Calm,-,N/A,,Clear,0,2012-11-21 21:29:00
3:55 PM,46.4,32.0,57,29.82,10.0,ESE,3.5,-,N/A,,Clear,120,2012-11-21 21:55:00
4:10 PM,46.4,32.0,57,29.83,10.0,Calm,Calm,-,N/A,,Clear,0,2012-11-21 22:10:00
4:29 PM,44.6,32.0,61,29.82,10.0,Calm,Calm,-,N/A,,Clear,0,2012-11-21 22:29:00
4:49 PM,37.4,32.0,81,29.82,10.0,Calm,Calm,-,N/A,,Clear,0,2012-11-21 22:49:00
5:10 PM,35.6,30.2,81,29.81,10.0,Calm,Calm,-,N/A,,Clear,0,2012-11-21 23:10:00
5:29 PM,33.8,30.2,87,29.81,10.0,Calm,Calm,-,N/A,,Clear,0,2012-11-21 23:29:00
5:50 PM,33.8,32.0,93,29.80,10.0,Calm,Calm,-,N/A,,Clear,0,2012-11-21 23:50:00
6:09 PM,32.0,30.2,93,29.79,10.0,Calm,Calm,-,N/A,,Clear,0,2012-11-22 00:09:00
6:30 PM,33.8,32.0,93,29.79,10.0,NE,4.6,-,N/A,,Clear,40,2012-11-22 00:30:00
6:50 PM,30.2,28.4,93,29.77,10.0,NE,3.5,-,N/A,,Clear,40,2012-11-22 00:50:00
7:09 PM,32.0,32.0,100,29.77,10.0,NE,4.6,-,N/A,,Clear,50,2012-11-22 01:09:00
7:30 PM,30.2,28.4,93,29.77,10.0,ENE,3.5,-,N/A,,Clear,60,2012-11-22 01:30:00
7:50 PM,30.2,28.4,93,29.76,7.0,NE,3.5,-,N/A,,Clear,40,2012-11-22 01:50:00
8:09 PM,32.0,32.0,100,29.75,10.0,ENE,3.5,-,N/A,,Clear,60,2012-11-22 02:09:00
8:30 PM,32.0,32.0,100,29.74,7.0,NE,4.6,-,N/A,,Clear,40,2012-11-22 02:30:00
8:50 PM,32.0,32.0,100,29.72,10.0,NE,3.5,-,N/A,,Clear,40,2012-11-22 02:50:00
9:09 PM,32.0,32.0,100,29.71,7.0,NE,4.6,-,N/A,,Clear,40,2012-11-22 03:09:00
9:30 PM,33.8,32.0,93,29.70,7.0,ENE,4.6,-,N/A,,Clear,60,2012-11-22 03:30:00
9:50 PM,32.0,32.0,100,29.68,10.0,ENE,4.6,-,N/A,,Clear,60,2012-11-22 03:50:00
10:09 PM,32.0,32.0,100,29.67,7.0,ENE,4.6,-,N/A,,Clear,60,2012-11-22 04:09:00
10:30 PM,33.8,32.0,93,29.66,7.0,ENE,4.6,-,N/A,,Clear,60,2012-11-22 04:30:00
10:50 PM,32.0,30.2,93,29.65,7.0,ENE,3.5,-,N/A,,Clear,60,2012-11-22 04:50:00
11:09 PM,32.0,32.0,100,29.64,7.0,NE,4.6,-,N/A,,Clear,50,2012-11-22 05:09:00
11:30 PM,33.8,32.0,93,29.63,10.0,NE,5.8,-,N/A,,Clear,40,2012-11-22 05:30:00
11:50 PM,32.0,32.0,100,29.62,7.0,NE,4.6,-,N/A,,Clear,50,2012-11-22 05:50:00